When you browse on this site, cookies collect data to enhance your experience and personalize the content and advertising you see.
Visit our Privacy Policy to learn more. By continuing to use the site, you agree to this use of cookies and data.
  • In Schweiz
  • Länderverzeichnis
  • Für 7 Tage
  • Wassertemperatur
  • Satellitenkarten
  • Wetterkarte
  • Widgets
  • user-avatar
    Anmelden

    Stündliche Wetter Talas

    Heute, 20 Januar, Sonntag

    Zeit Temperatur Niederschläge Wind Luftdruck Luftfeuchtigkeit
    00:00 -4°C° 0 mm 5 m/S 591 mmHg 54%
    01:00 -5°C° 0 mm 5 m/S 591 mmHg 53%
    02:00 -5°C° 0 mm 5 m/S 591 mmHg 51%
    03:00 -5°C° 0 mm 5 m/S 591 mmHg 49%
    04:00 -4°C° 0 mm 4 m/S 591 mmHg 47%
    05:00 -4°C° 0 mm 4 m/S 591 mmHg 46%
    06:00 -4°C° 0 mm 4 m/S 591 mmHg 46%
    07:00 -4°C° 0 mm 3 m/S 591 mmHg 47%
    08:00 -5°C° 0 mm 3 m/S 591 mmHg 48%
    09:00 -2°C° 0 mm 3 m/S 591 mmHg 50%
    10:00 -1°C° 0 mm 3 m/S 592 mmHg 52%
    11:00 +1°C° 0 mm 2 m/S 592 mmHg 54%
    12:00 +1°C° 0 mm 2 m/S 592 mmHg 56%
    13:00 +1°C° 0 mm 2 m/S 593 mmHg 58%
    14:00 +1°C° 0 mm 2 m/S 593 mmHg 60%
    15:00 -2°C° 0 mm 2 m/S 592 mmHg 64%
    16:00 -3°C° 0 mm 2 m/S 592 mmHg 67%
    17:00 -5°C° 0 mm 2 m/S 592 mmHg 71%
    18:00 -6°C° 0 mm 2 m/S 592 mmHg 67%
    19:00 -6°C° 0 mm 2 m/S 592 mmHg 63%
    20:00 -7°C° 0 mm 2 m/S 593 mmHg 59%
    21:00 -7°C° 0 mm 2 m/S 593 mmHg 62%
    22:00 -7°C° 0 mm 2 m/S 594 mmHg 65%
    23:00 -6°C° 0 mm 2 m/S 594 mmHg 67%

    Morgen, 21 Januar, Montag

    Zeit Temperatur Niederschläge Wind Luftdruck Luftfeuchtigkeit
    00:00 -6°C° 0.1 mm 2 m/S 595 mmHg 71%
    01:00 -6°C° 0.1 mm 2 m/S 595 mmHg 75%
    02:00 -6°C° 0.1 mm 2 m/S 595 mmHg 79%
    03:00 -6°C° 0.1 mm 2 m/S 596 mmHg 80%
    04:00 -6°C° 0.1 mm 2 m/S 596 mmHg 80%
    05:00 -7°C° 0.1 mm 2 m/S 596 mmHg 81%
    06:00 -7°C° 0.1 mm 2 m/S 596 mmHg 81%
    07:00 -7°C° 0.1 mm 2 m/S 597 mmHg 81%
    08:00 -7°C° 0.1 mm 2 m/S 597 mmHg 81%
    09:00 -6°C° 0.1 mm 2 m/S 598 mmHg 78%
    10:00 -5°C° 0.1 mm 2 m/S 599 mmHg 74%
    11:00 -5°C° 0.1 mm 2 m/S 599 mmHg 71%
    12:00 -5°C° 0.1 mm 2 m/S 599 mmHg 70%
    13:00 -5°C° 0.1 mm 2 m/S 599 mmHg 70%
    14:00 -4°C° 0.1 mm 2 m/S 599 mmHg 69%
    15:00 -3°C° 0 mm 1 m/S 599 mmHg 74%
    16:00 -4°C° 0 mm 1 m/S 598 mmHg 78%
    17:00 -7°C° 0 mm 1 m/S 598 mmHg 83%
    18:00 -7°C° 0 mm 1 m/S 597 mmHg 82%
    19:00 -8°C° 0 mm 1 m/S 597 mmHg 80%
    20:00 -8°C° 0 mm 1 m/S 597 mmHg 79%
    21:00 -8°C° 0 mm 1 m/S 597 mmHg 76%
    22:00 -10°C° 0 mm 2 m/S 596 mmHg 72%
    23:00 -10°C° 0 mm 2 m/S 596 mmHg 69%

    übermorgen, 22 Januar, Dienstag

    Zeit Temperatur Niederschläge Wind Luftdruck Luftfeuchtigkeit
    00:00 -9°C° 0 mm 2 m/S 596 mmHg 67%
    01:00 -9°C° 0 mm 2 m/S 595 mmHg 64%
    02:00 -9°C° 0 mm 2 m/S 595 mmHg 61%
    03:00 -8°C° 0 mm 1 m/S 594 mmHg 59%
    04:00 -9°C° 0 mm 1 m/S 594 mmHg 57%
    05:00 -9°C° 0 mm 1 m/S 594 mmHg 55%
    06:00 -9°C° 0 mm 1 m/S 593 mmHg 53%
    07:00 -9°C° 0 mm 1 m/S 593 mmHg 51%
    08:00 -9°C° 0 mm 1 m/S 593 mmHg 49%
    09:00 -7°C° 0 mm 1 m/S 594 mmHg 48%
    10:00 -4°C° 0 mm 1 m/S 594 mmHg 46%
    11:00 -2°C° 0 mm 1 m/S 595 mmHg 45%
    12:00 -2°C° 0 mm 1 m/S 594 mmHg 46%
    13:00 -2°C° 0 mm 1 m/S 594 mmHg 48%
    14:00 -2°C° 0 mm 1 m/S 593 mmHg 49%
    15:00 -3°C° 0 mm 1 m/S 593 mmHg 55%
    16:00 -6°C° 0 mm 1 m/S 592 mmHg 61%
    17:00 -8°C° 0 mm 1 m/S 591 mmHg 67%
    18:00 -8°C° 0 mm 1 m/S 591 mmHg 62%
    19:00 -8°C° 0 mm 1 m/S 591 mmHg 57%
    20:00 -8°C° 0 mm 1 m/S 592 mmHg 51%
    21:00 -9°C° 0 mm 2 m/S 592 mmHg 47%
    22:00 -9°C° 0 mm 2 m/S 592 mmHg 42%
    23:00 -9°C° 0 mm 2 m/S 592 mmHg 37%

    23 Januar, Mittwoch

    Zeit Temperatur Niederschläge Wind Luftdruck Luftfeuchtigkeit
    00:00 -9°C° 0 mm 2 m/S 592 mmHg 36%
    01:00 -9°C° 0 mm 2 m/S 592 mmHg 35%
    02:00 -9°C° 0 mm 2 m/S 592 mmHg 34%
    03:00 -9°C° 0 mm 2 m/S 592 mmHg 34%
    04:00 -9°C° 0 mm 2 m/S 592 mmHg 35%
    05:00 -8°C° 0 mm 1 m/S 592 mmHg 36%
    06:00 -9°C° 0 mm 2 m/S 593 mmHg 38%
    07:00 -8°C° 0 mm 2 m/S 593 mmHg 39%
    08:00 -8°C° 0 mm 2 m/S 593 mmHg 41%
    09:00 -7°C° 0 mm 2 m/S 594 mmHg 42%
    10:00 -6°C° 0 mm 2 m/S 595 mmHg 43%
    11:00 -2°C° 0 mm 1 m/S 596 mmHg 45%
    12:00 -2°C° 0 mm 1 m/S 596 mmHg 46%
    13:00 -2°C° 0 mm 1 m/S 596 mmHg 47%
    14:00 -2°C° 0 mm 1 m/S 595 mmHg 49%
    15:00 -3°C° 0 mm 1 m/S 595 mmHg 54%
    16:00 -4°C° 0 mm 1 m/S 595 mmHg 59%
    17:00 -6°C° 0 mm 1 m/S 594 mmHg 64%
    18:00 -7°C° 0 mm 1 m/S 595 mmHg 63%
    19:00 -8°C° 0 mm 2 m/S 595 mmHg 63%
    20:00 -9°C° 0 mm 2 m/S 595 mmHg 63%
    21:00 -9°C° 0 mm 2 m/S 595 mmHg 62%
    22:00 -9°C° 0 mm 2 m/S 595 mmHg 62%
    23:00 -9°C° 0 mm 2 m/S 595 mmHg 61%

    24 Januar, Donnerstag

    Zeit Temperatur Niederschläge Wind Luftdruck Luftfeuchtigkeit
    00:00 -9°C° 0 mm 2 m/S 595 mmHg 60%
    01:00 -9°C° 0 mm 2 m/S 595 mmHg 59%
    02:00 -8°C° 0 mm 2 m/S 595 mmHg 58%
    03:00 -8°C° 0 mm 2 m/S 595 mmHg 58%
    04:00 -8°C° 0 mm 2 m/S 595 mmHg 57%
    05:00 -8°C° 0 mm 2 m/S 596 mmHg 57%
    06:00 -8°C° 0 mm 2 m/S 596 mmHg 58%
    07:00 -8°C° 0 mm 2 m/S 596 mmHg 59%
    08:00 -8°C° 0 mm 2 m/S 596 mmHg 59%
    09:00 -7°C° 0 mm 2 m/S 597 mmHg 59%
    10:00 -7°C° 0 mm 2 m/S 597 mmHg 59%
    11:00 -6°C° 0 mm 2 m/S 598 mmHg 58%
    12:00 -5°C° 0 mm 2 m/S 598 mmHg 58%
    13:00 -5°C° 0 mm 2 m/S 598 mmHg 59%
    14:00 -5°C° 0 mm 2 m/S 598 mmHg 59%
    15:00 -6°C° 0 mm 2 m/S 597 mmHg 63%
    16:00 -7°C° 0 mm 2 m/S 597 mmHg 66%
    17:00 -8°C° 0 mm 2 m/S 597 mmHg 70%
    18:00 -9°C° 0 mm 2 m/S 597 mmHg 69%
    19:00 -12°C° 0 mm 3 m/S 597 mmHg 68%
    20:00 -12°C° 0 mm 3 m/S 597 mmHg 67%
    21:00 -12°C° 0 mm 3 m/S 597 mmHg 66%
    22:00 -12°C° 0 mm 3 m/S 597 mmHg 66%
    23:00 -12°C° 0 mm 4 m/S 597 mmHg 65%

    25 Januar, Freitag

    Zeit Temperatur Niederschläge Wind Luftdruck Luftfeuchtigkeit
    00:00 -12°C° 0 mm 3 m/S 597 mmHg 65%
    01:00 -12°C° 0 mm 3 m/S 597 mmHg 65%
    02:00 -12°C° 0 mm 3 m/S 597 mmHg 65%
    03:00 -12°C° 0 mm 3 m/S 597 mmHg 65%
    04:00 -12°C° 0 mm 3 m/S 596 mmHg 65%
    05:00 -10°C° 0 mm 2 m/S 596 mmHg 65%
    06:00 -10°C° 0 mm 2 m/S 597 mmHg 65%
    07:00 -10°C° 0 mm 2 m/S 597 mmHg 66%
    08:00 -10°C° 0 mm 2 m/S 597 mmHg 67%
    09:00 -9°C° 0.1 mm 2 m/S 597 mmHg 66%
    10:00 -8°C° 0.1 mm 2 m/S 598 mmHg 64%
    11:00 -7°C° 0.1 mm 2 m/S 598 mmHg 63%
    12:00 -7°C° 0.1 mm 2 m/S 598 mmHg 63%
    13:00 -6°C° 0.1 mm 1 m/S 598 mmHg 63%
    14:00 -4°C° 0.1 mm 1 m/S 598 mmHg 63%
    15:00 -6°C° 0 mm 1 m/S 598 mmHg 66%
    16:00 -7°C° 0 mm 1 m/S 598 mmHg 69%
    17:00 -8°C° 0 mm 1 m/S 598 mmHg 72%
    18:00 -8°C° 0 mm 1 m/S 597 mmHg 71%
    19:00 -9°C° 0 mm 1 m/S 597 mmHg 69%
    20:00 -12°C° 0 mm 2 m/S 597 mmHg 68%
    21:00 -12°C° 0 mm 2 m/S 597 mmHg 66%
    22:00 -12°C° 0 mm 2 m/S 597 mmHg 65%
    23:00 -13°C° 0 mm 3 m/S 597 mmHg 64%
    Mehr zeigen